Satellite-Ground Cal/Val Region Overpasses Predictions

Prediction of Satellite NPP Overpassing Cal/Val Region: PacNW

Region Location: (Latitude: 10.00, Longitude: 139.50) to (Latitude: 22.70, Longitude: 165.60).

Table of predicted overpasses for the next 14.0 days since TLE Epoch: 6/9/2019
Interval Starting Time Starting Location Ending Time Ending Location
1 06/10/2019 02:33:04 ( 10.04, 161.43) 06/10/2019 02:36:39 ( 22.66, 158.42)
2 06/10/2019 15:04:57 ( 22.70, 158.67) 06/10/2019 15:08:33 ( 10.02, 155.65)
3 06/11/2019 02:14:47 ( 12.62, 165.59) 06/11/2019 02:17:38 ( 22.66, 163.18)
4 06/11/2019 03:55:32 ( 10.04, 140.81) 06/11/2019 03:57:07 ( 15.62, 139.51)
5 06/11/2019 14:45:55 ( 22.70, 163.43) 06/11/2019 14:49:31 ( 10.02, 160.41)
6 06/12/2019 03:36:31 ( 10.04, 145.56) 06/12/2019 03:40:06 ( 22.66, 142.56)
7 06/12/2019 14:29:58 ( 11.90, 165.60) 06/12/2019 14:30:30 ( 10.02, 165.17)
8 06/12/2019 16:08:24 ( 22.69, 142.81) 06/12/2019 16:12:00 ( 10.02, 139.79)
9 06/13/2019 03:17:30 ( 10.04, 150.32) 06/13/2019 03:21:05 ( 22.66, 147.32)
10 06/13/2019 15:49:22 ( 22.69, 147.57) 06/13/2019 15:52:58 ( 10.01, 144.55)
11 06/14/2019 02:58:28 ( 10.04, 155.08) 06/14/2019 03:02:03 ( 22.67, 152.07)
12 06/14/2019 15:30:21 ( 22.69, 152.32) 06/14/2019 15:33:57 ( 10.01, 149.30)
13 06/15/2019 02:39:27 ( 10.05, 159.83) 06/15/2019 02:43:02 ( 22.67, 156.83)
14 06/15/2019 15:11:19 ( 22.69, 157.08) 06/15/2019 15:14:55 ( 10.01, 154.06)
15 06/16/2019 02:20:25 ( 10.05, 164.59) 06/16/2019 02:24:00 ( 22.67, 161.59)
16 06/16/2019 14:52:18 ( 22.69, 161.84) 06/16/2019 14:55:54 ( 10.01, 158.82)
17 06/17/2019 03:42:54 ( 10.05, 143.97) 06/17/2019 03:46:29 ( 22.67, 140.97)
18 06/17/2019 14:34:25 ( 18.64, 165.60) 06/17/2019 14:36:52 ( 10.01, 163.57)
19 06/17/2019 16:14:46 ( 22.68, 141.22) 06/17/2019 16:16:46 ( 15.64, 139.51)
20 06/18/2019 03:23:52 ( 10.06, 148.73) 06/18/2019 03:27:27 ( 22.68, 145.72)
21 06/18/2019 15:55:45 ( 22.68, 145.97) 06/18/2019 15:59:21 ( 10.00, 142.95)
22 06/19/2019 03:04:51 ( 10.06, 153.48) 06/19/2019 03:08:26 ( 22.68, 150.48)
23 06/19/2019 15:36:44 ( 22.68, 150.73) 06/19/2019 15:40:20 ( 10.00, 147.71)
24 06/20/2019 02:45:48 ( 10.00, 158.25) 06/20/2019 02:49:24 ( 22.68, 155.23)
25 06/20/2019 15:17:42 ( 22.68, 155.49) 06/20/2019 15:21:17 ( 10.06, 152.48)
26 06/21/2019 02:26:47 ( 10.01, 163.01) 06/21/2019 02:30:23 ( 22.69, 159.99)
27 06/21/2019 14:58:41 ( 22.67, 160.24) 06/21/2019 15:02:16 ( 10.05, 157.24)
28 06/22/2019 02:10:23 ( 19.29, 165.59) 06/22/2019 02:11:21 ( 22.69, 164.75)
29 06/22/2019 03:49:15 ( 10.01, 142.39) 06/22/2019 03:52:42 ( 22.17, 139.50)
30 06/22/2019 14:39:39 ( 22.67, 165.00) 06/22/2019 14:43:14 ( 10.05, 161.99)
31 06/22/2019 16:21:09 ( 22.67, 139.62) 06/22/2019 16:21:17 ( 22.20, 139.50)
32 06/23/2019 03:30:14 ( 10.02, 147.15) 06/23/2019 03:33:50 ( 22.70, 144.13)


NCC Satellite Cal/Val Overpasses Prediction Service
